Lansdowne House, Ontario

5:08 PM EDT on October 19, 2017 (GMT -0400)
Lansdowne House

Weather History for CWLF - July, 2013

Change the Weather History Date:

Saturday, July 13, 2013

  Actual Average Record
Temperature  
Mean Temperature 77 °F -  
Max Temperature 88 °F - - ()
Min Temperature 66 °F - - ()
Cooling Degree Days 12    
Growing Degree Days 27 (Base 50)    
Moisture  
Dew Point 61 °F    
Average Humidity 65    
Maximum Humidity 95    
Minimum Humidity 20    
Precipitation  
Precipitation 0.00 in - - ()
Sea Level Pressure  
Sea Level Pressure 29.87 in    
Wind  
Wind Speed 7 mph ()    
Max Wind Speed 18 mph    
Max Gust Speed -    
T = Trace of Precipitation, MM = Missing Value Source: Averaged Metar Reports

Daily Weather History Graph

Daily Weather History Graph

Search for Another Location

Airport or City:

Trip Planner

Search our weather history database for the weather conditions in past years. The results will help you decide how hot, cold, wet, or windy it might be!

Date:

Astronomy

Jul. 13, 2013 Rise Set
Actual Time 5:46 AM EDT 10:07 PM EDT
Civil Twilight 5:00 AM EDT 10:53 PM EDT
Nautical Twilight 3:50 AM EDT 12:02 AM EDT
Astronomical Twilight 2:29 AM EDT 1:25 AM EDT
Moon 11:50 AM EDT (7/13) 11:56 PM EDT (7/13)
Length of Visible Light 17h 53m
Length of Day
16h 20m
Waxing Crescent, 25% of the Moon is Illuminated
Jul 13
Waxing Crescent
Jul 15
First Quarter
Jul 22
Full
Jul 29
Last Quarter
Aug 6
New

Hourly Weather History & Observations

Time (EDT) Temp. Heat Index Dew Point Humidity Pressure Visibility Wind Dir Wind Speed Gust Speed Precip Events Conditions
12:00 AM 69.4 °F - 66.0 °F 89% 29.79 in - SSW 9.2 mph - N/A   Unknown
1:00 AM 69.3 °F - 66.2 °F 90% 29.79 in - SSW 9.2 mph - N/A   Unknown
2:00 AM 68 °F - 66 °F 90% 29.79 in - SSW 8.1 mph - -  
2:00 AM 68.4 °F - 65.7 °F 91% 29.79 in - SSW 9.2 mph - N/A   Unknown
3:00 AM 67.8 °F - 65.5 °F 92% 29.80 in - SW 5.8 mph - N/A   Unknown
4:00 AM 67.6 °F - 65.5 °F 93% 29.81 in - SSW 4.6 mph - N/A   Unknown
5:00 AM 67.1 °F - 65.5 °F 95% 29.83 in - SW 5.8 mph - N/A   Unknown
6:00 AM 67.1 °F - 65.7 °F 95% 29.83 in - SW 4.6 mph - N/A   Unknown
7:00 AM 68.2 °F - 66.4 °F 94% 29.83 in - SW 6.9 mph - N/A   Unknown
8:00 AM 70 °F - 67 °F 88% 29.85 in - WSW 17.9 mph - -  
8:00 AM 70.2 °F - 67.1 °F 90% 29.85 in - WSW 9.2 mph - N/A   Unknown
9:00 AM 71.1 °F - 67.5 °F 88% 29.86 in - WSW 6.9 mph - N/A   Unknown
10:00 AM 72.5 °F - 67.3 °F 84% 29.86 in - WSW 10.4 mph - N/A   Unknown
11:00 AM 76.1 °F - 67.3 °F 74% 29.88 in - WSW 10.4 mph - N/A   Unknown
12:00 PM 78.6 °F - 66.4 °F 66% 29.89 in - WSW 9.2 mph - N/A   Unknown
1:00 PM 82.4 °F 83.7 °F 63.9 °F 53% 29.89 in - West 6.9 mph - N/A   Unknown
2:00 PM 84 °F - 58 °F 32% 29.90 in - WNW 6.9 mph - -  
2:00 PM 84.2 °F 83.7 °F 58.5 °F 41% 29.90 in - West 4.6 mph - N/A   Unknown
3:00 PM 85.3 °F 83.5 °F 53.4 °F 33% 29.90 in - WNW 3.5 mph - N/A   Unknown
4:00 PM 86.4 °F - 51.4 °F 30% 29.91 in - WSW 9.2 mph - N/A   Unknown
5:00 PM 87.8 °F - 50.2 °F 27% 29.90 in - WNW 5.8 mph - N/A   Unknown
6:00 PM 87.8 °F - 49.3 °F 26% 29.91 in - WNW 9.2 mph - N/A   Unknown
7:00 PM 87.8 °F - 52.5 °F 30% 29.92 in - West 4.6 mph - N/A   Unknown
8:00 PM 86 °F - 51 °F 20% 29.92 in - WNW 8.9 mph - -  
8:00 PM 86.4 °F - 51.3 °F 30% 29.92 in - WNW 5.8 mph - N/A   Unknown
9:00 PM 81.9 °F 81.9 °F 58.6 °F 45% 29.93 in - WSW 3.5 mph - N/A   Unknown
10:00 PM 73.4 °F - 62.6 °F 69% 29.95 in - SW 1.2 mph - N/A   Unknown
11:00 PM 67.3 °F - 59.9 °F 77% 29.96 in - WSW 3.5 mph - N/A   Unknown